Powrót do katalogu

VIREON-2

AktywnyNaukaSSO
NORAD 68421·PAYLOAD·🇬🇧 United Kingdom

Wystrzelony Mar 30, 2026 z Vandenberg Space Force Base

Loading…

Następne Przeloty (najbliższe 24 godziny)

TLE

ŚwieżeSource: Space-Track

Epoka: Sep 13, 2026, 20:11 UTC

1 68421U 26067F   26256.84144238  .00003376  00000-0  16289-3 0  9995
2 68421  97.4620 214.1900 0001114  59.2419 300.8926 15.19370447 25405

Śledź VIREON-2 w czasie rzeczywistym z AllMySat

Download on the App Store